User: anonymous
Location: Unspecified
(0.0000°N, 0.0000°E)
Time: 07:58:44
(UTC+02:00)
Language:

SJ-6B - Orbit

View from above orbital plane
View from above orbital plane
View from above satellite
View from above satellite

Ground track
Ground track

The orbit data is extracted from the following two-line orbital elements,

1 28415U 04035C   14272.97721089  .00004954  00000-0  36425-3 0  3091
2 28415 097.7994 278.2810 0055868 236.7296 122.8569 15.02633890549482
Epoch (UTC): 29 September 2014 23:27:11
Eccentricity: 0.0055868
inclination: 97.7994°
perigee height: 520 km
apogee height: 597 km
right ascension of ascending node: 278.2810°
argument of perigee: 236.7296°
revolutions per day: 15.02633890
mean anomaly at epoch: 122.8569°
orbit number at epoch: 54948

The dashed part of the orbit path shows where the satellite is in the earth's shadow,  

DLR